Regional Weather Roundup
Issued by NWS

Home | Current Version | Previous Version | Graphics & Text | Print | Product List | Glossary On
Versions: 1 2 3 4 5 6 7 8 9 10 11 12 13 14 15 16 17 18 19 20 21 22 23 24 25 26 27 28 29 30 31 32 33 34 35 36 37 38 39 40 41 42 43 44 45 46 47 48 49 50
000
ASUS43 KMKX 231220
RWRWI

WISCONSIN REGIONAL WEATHER ROUNDUP
NATIONAL WEATHER SERVICE MILWAUKEE/SULLIVAN WI
700 AM CDT SAT MAY 23 2015

NOTE: "FAIR" INDICATES FEW OR NO CLOUDS BELOW 12,000 FEET WITH NO
SIGNIFICANT WEATHER AND/OR OBSTRUCTIONS TO VISIBILITY.

WIZ001-002-006>008-014>016-023>028-231300-
NORTHWEST WISCONSIN

CITY           SKY/WX    TMP DP  RH WIND       PRES   REMARKS
SUPERIOR ARPT  SUNNY     48  39  71 SW7       30.22R
ASHLAND        SUNNY     57  39  51 SW7       30.24R
6HR MIN TEMP:  43; 6HR MAX TEMP:  57;

HAYWARD        SUNNY     43  39  86 CALM      30.26R
6HR MIN TEMP:  36; 6HR MAX TEMP:  43;

SIREN          SUNNY     41  39  92 CALM      30.25R
CUMBERLAND     SUNNY     43  37  81 CALM      30.25S
RICE LAKE      SUNNY     42  41  96 CALM      30.27R
CHETEK         SUNNY     42  42  98 CALM      30.26R
LADYSMITH      SUNNY     43  40  89 CALM      30.28R
EAU CLAIRE     SUNNY     48  44  86 CALM      30.26R
6HR MIN TEMP:  39; 6HR MAX TEMP:  48;

MENOMONIE      SUNNY     47  45  93 CALM      30.26R
NEW RICHMOND   SUNNY     47  40  78 E3        30.24S
OSCEOLA        SUNNY     43  43 100 CALM      30.26S
$$

WIZ003>005-009-010-017-018-231300-
NORTH CENTRAL WISCONSIN

CITY           SKY/WX    TMP DP  RH WIND       PRES   REMARKS
MANITOWISH WTR SUNNY     40  39  99 CALM      30.26R
ARBOR VITAE    SUNNY     43  39  85 S5        30.27R
WOODRUFF       SUNNY     43  39  85 S5        30.27R
RHINELANDER    SUNNY     51  38  60 SW3       30.29R
6HR MIN TEMP:  34; 6HR MAX TEMP:  51;

EAGLE RIVER    SUNNY     40  38  93 CALM      30.27R
LAND O LAKES   SUNNY     43  37  78 CALM      30.28R
PHILLIPS       SUNNY     40  38  91 CALM      30.26S
TOMAHAWK       SUNNY     35  33  93 CALM      30.29R
MEDFORD        SUNNY     44  38  80 CALM      30.28R
MERRILL        SUNNY     36  35  96 NE3       30.30R
$$

WIZ029-030-035-036-043>047-231300-
CENTRAL WISCONSIN

CITY           SKY/WX    TMP DP  RH WIND       PRES   REMARKS
WAUSAU         SUNNY     46  40  79 E5        30.28S
6HR MIN TEMP:  41; 6HR MAX TEMP:  47;

MOSINEE        SUNNY     45  41  87 CALM      30.30R
MARSHFIELD     SUNNY     49  42  77 S3        30.29R
6HR MIN TEMP:  45; 6HR MAX TEMP:  51;

STEVENS POINT  SUNNY     42  37  81 CALM      30.30S
WAUPACA        SUNNY     45  38  77 CALM      30.31R
WAUTOMA        NOT AVBL
WISC RAPIDS    SUNNY     50  36  58 S5        30.32R
6HR MIN TEMP:  47; 6HR MAX TEMP:  53;

CAMP DOUGLAS   NOT AVBL
$$

WIZ011>013-019>022-031-037>040-048>050-231300-
NORTHEAST WISCONSIN

CITY           SKY/WX    TMP DP  RH WIND       PRES   REMARKS
ANTIGO         SUNNY     40  37  89 CALM      30.30R
SHAWANO        SUNNY     46  36  67 CALM      30.31R
OCONTO         SUNNY     39  39  99 CALM      30.30R
STURGEON BAY   SUNNY     48  30  49 S5        30.33S
6HR MIN TEMP:  43; 6HR MAX TEMP:  48;

GREEN BAY      SUNNY     49  35  58 CALM      30.32R
6HR MIN TEMP:  40; 6HR MAX TEMP:  49;

MANITOWOC      NOT AVBL
APPLETON       MOSUNNY   46  34  61 VRB5      30.31R
CLINTONVILLE   SUNNY     43  37  81 CALM      30.30R
OSHKOSH        SUNNY     51  35  54 S6        30.31R
6HR MIN TEMP:  44; 6HR MAX TEMP:  51;

$$

WIZ032>034-041-042-053>061-231300-
SOUTHWEST WISCONSIN

CITY           SKY/WX    TMP DP  RH WIND       PRES   REMARKS
LA CROSSE      MOSUNNY   53  44  71 SE5       30.27R
6HR MIN TEMP:  48; 6HR MAX TEMP:  54;

SPARTA         SUNNY     41  38  91 CALM      30.29R
VIROQUA        MOSUNNY   52  39  61 SE8       30.28S
BOSCOBEL       PTSUNNY   50  46  86 CALM      30.30R
6HR MIN TEMP:  43; 6HR MAX TEMP:  51;

PRAIRIE DU CHI MOSUNNY   52  44  75 E5        30.28S
PLATTEVILLE    PTSUNNY   53  40  62 E7        30.30S
$$

WIZ056-057-062-063-064-067-068-231300-
SOUTH CENTRAL WISCONSIN

CITY           SKY/WX    TMP DP  RH WIND       PRES   REMARKS
REEDSBURG      SUNNY     51  35  54 CALM      30.30R
BARABOO/DELLS  SUNNY     54  31  41 SW6       30.30R
LONE ROCK      NOT AVBL
MINERAL POINT  SUNNY     50  34  53 SE8       30.30S
MADISON        MOSUNNY   52  35  52 S5        30.32R
6HR MIN TEMP:  45; 6HR MAX TEMP:  55;

MIDDLETON      SUNNY     55  30  38 SE3       30.32R
WATERTOWN      SUNNY     43  39  86 CALM      30.32R
MONROE         MOSUNNY   52  36  54 S9        30.31R
JANESVILLE     SUNNY     48  37  66 CALM      30.32R
$$

WIZ051-052-058>065-066-070>072-231300-
SOUTHEAST WISCONSIN

CITY           SKY/WX    TMP DP  RH WIND       PRES   REMARKS
MILWAUKEE      MOSUNNY   53  33  46 S3        30.34R
6HR MIN TEMP:  45; 6HR MAX TEMP:  53;

WAUKESHA       MOSUNNY   50  32  50 S5        30.34R
MILWAUKEE/TIMM SUNNY     45  34  65 CALM      30.33S
RACINE         SUNNY     54  34  46 S8        30.35R
6HR MIN TEMP:  43; 6HR MAX TEMP:  54;

BURLINGTON     SUNNY     41  38  88 CALM      30.33R
KENOSHA        SUNNY     51  41  68 CALM      30.34R
6HR MIN TEMP:  39; 6HR MAX TEMP:  51;

FOND DU LAC    SUNNY     51  32  48 S6        30.32R
6HR MIN TEMP:  42; 6HR MAX TEMP:  51;

SHEBOYGAN      SUNNY     52  35  52 SW7       30.32R
6HR MIN TEMP:  40; 6HR MAX TEMP:  52;

WEST BEND      SUNNY     45  36  70 CALM      30.32R
JUNEAU         SUNNY     46  32  59 SE3       30.33R
$$

LSZ147-162-231300-
LAKE SUPERIOR

STATION/POSITION TIME  TEMP    WIND        PRES    WAVE
                       AIR SEA DIR/SP/G            HT/PER
                 (UTC) (F)     (DEG/KT/KT) (MB)    (FT/S)
W MID LAKE BUOY  1050   40 36  230/ 10/ 10   N/A     1
DEVILS ISLAND    1100   50     230/ 16/ 17   N/A
PORT WING        1140   47     190/  5/  5   N/A
$$

LMZ867-665-643>646-231300-
LAKE MICHIGAN

STATION/POSITION TIME  TEMP    WIND        PRES    WAVE
                       AIR SEA DIR/SP/G            HT/PER
                 (UTC) (F)     (DEG/KT/KT) (MB)    (FT/S)
CHAMBERS ISLAND  1100   50     190/  6/ 11   N/A
N MID LAKE BUOY  1050   40 36  190/ 10/ 12   N/A     0
NORTHPORT PIER   1000   47     170/  1/  4   N/A
SISTER BAY       1118   50     200/  3/  7   N/A
KEWAUNEE LAKESHO 1100   40      CALM  /  2   N/A
SHEBOYGAN LAKESH 1100   49     180/  7/  7   N/A
PORT WASHINGTON  1140   53     190/  5/  7   N/A
ATWATER BUOY     1100   48 45  170/  2/  4   N/A
MILWAUKEE LAKESH 1100   53     210/  4/  4   N/A
S MID LAKE BUOY  1050   44 38  190/  4/  4   N/A     0
KENOSHA   LAKESH 1000   49      CALM  /  1   N/A
$$

TC  - TEMPERATURE IN CELSIUS
VSB - VISIBILITY IN STATUTE MILES
WCI - WIND CHILL INDEX
HX  - HEAT INDEX



USA.gov is the U.S. government's official web portal to all federal, state and local government web resources and services.